Flag for U.S.A. Weather past 2 weeks in Honolulu, Hawaii, U.S.A.

Now
87 °F

Broken clouds.


Feels Like: 99 °F
Forecast: 75 / 86 °F
Wind: 9 mph from South

Location: Honolulu International Airport

Current Time: Aug 28, 2015 at 12:31:24 PM

Latest Report: Aug 28, 2015 at 11:53 AM


Visibility: 10 mi

Pressure: 29.89 "Hg

Humidity: 72%

Dew point: 77 °F

Location of HonoluluLocation

Historic Weather in Honolulu — Graph

°F

Honolulu temperature yesterday

Maximum temperature yesterday: 85 °F (at 1:53 PM)
Minimum temperature yesterday: 76 °F (at 5:53 AM)
Average temperature yesterday: 80 °F

Past Weeks' High & Low Weather Summary

 TemperatureHumidityPressure
High91 °F (Aug 13, 1:53 PM)100% (Aug 23, 7:31 PM)29.98 "Hg (Aug 23, 7:31 PM)
Low73 °F (Aug 24, 3:40 AM)49% (Aug 21, 1:53 PM)29.77 "Hg (Aug 18, 4:53 PM)
Average82 °F78%29.89 "Hg
* Reported Aug 13 10:53 AM — Aug 28 10:53 AM, Honolulu, Weather by CustomWeather, © 2015

Note: Actual official high and low records may vary slightly from our data, if they occured in-between our weather recording intervals... More about our weather records

Advertising

Honolulu weather history for previous 24 hours

 ConditionsComfort  
Time TempWeatherWind HumidityBarometerVisibility
10:53 AM
Fri, Aug 28
86 °FScattered clouds.10 mph75%29.90 "Hg10 mi
9:53 AM87 °FBroken clouds.3 mph65%29.90 "Hg10 mi
8:53 AM83 °FScattered clouds.7 mph74%29.90 "Hg10 mi
7:53 AM81 °FScattered clouds.3 mph82%29.90 "Hg10 mi
6:53 AM78 °FScattered clouds.3 mph93%29.88 "Hg10 mi
5:53 AM78 °FPassing clouds.No wind93%29.86 "Hg10 mi
4:53 AM78 °FPartly cloudy.3 mph93%29.85 "Hg10 mi
3:53 AM78 °FPartly cloudy.No wind93%29.85 "Hg10 mi
2:53 AM79 °FPartly cloudy.5 mph91%29.86 "Hg10 mi
1:53 AM79 °FPartly cloudy.6 mph91%29.88 "Hg10 mi
12:53 AM78 °FPartly cloudy.5 mph93%29.88 "Hg10 mi
11:53 PM
Thu, Aug 27
79 °FPassing clouds.No wind88%29.89 "Hg10 mi
10:53 PM78 °FPassing clouds.3 mph90%29.90 "Hg10 mi
9:53 PM79 °FPassing clouds.5 mph88%29.90 "Hg10 mi
8:53 PM80 °FPassing clouds.3 mph87%29.89 "Hg10 mi
7:53 PM81 °FPassing clouds.No wind79%29.86 "Hg10 mi
6:53 PM82 °FPassing clouds.5 mph79%29.84 "Hg10 mi
5:53 PM83 °FScattered clouds.7 mph86%29.82 "Hg10 mi
4:53 PM78 °FBroken clouds.6 mph93%29.82 "Hg10 mi
4:02 PM79 °FLight rain. Broken clouds.12 mph89%29.83 "Hg9 mi
3:40 PM79 °FLight rain. More clouds than sun.13 mph100%29.84 "Hg10 mi
3:08 PM82 °FThunderstorms. Broken clouds.12 mph89%29.84 "Hg10 mi
3:03 PM82 °FThunderstorms. Partly sunny.6 mph89%29.84 "Hg8 mi
2:53 PM82 °FThunderstorms. Broken clouds.7 mph85%29.84 "Hg10 mi
2:29 PM82 °FThunderstorms. Broken clouds.7 mph84%29.84 "Hg10 mi
1:53 PM85 °FScattered clouds.10 mph77%29.84 "Hg10 mi
12:53 PM84 °FScattered clouds.10 mph80%29.86 "Hg10 mi
Weather by CustomWeather, © 2015

See weather overviewHow to use our weather pages